sat.trackr.live / text

‹ back to catalog

GPS BIIF-7 (PRN 09)

NORAD 40105 · 2014-045A

PAYLOAD ACTIVE UNKNOWN

§ Identity

Operator
Country
US
Launch date
2014-08-02
Launch site
AFETR
Launch vehicle
Mass (kg)
RCS (m²)
10.79

Purposes: earth_obs, nav

External: N2YO · Heavens-Above · Gunter

§ Orbital elements

Epoch: 2026-09-19T18:50:01.671648Z

Period
717.97 min
Inclination
55.4212°
Eccentricity
0.0036495
Mean motion
2.00564672 rev/d
Perigee alt
20,085.2 km
Apogee alt
20,279.0 km
Semi-major
26,560.3 km
B*
0.0000e+0
RAAN
84.6969°
Arg perigee
120.1919°
Mean anomaly
240.2241°
Rev number
8,797

§ Raw data

GPS BIIF-7  (PRN 09)1 40105U 14045A   26262.78474157  .00000017  00000+0  00000+0 0  99912 40105  55.4212  84.6969 0036495 120.1919 240.2241  2.00564672 87971

JSON: /api/v1/satellites/40105 · /tle

For live sub-satellite position, see the globe view (requires WebGL).

§ Visibility from observer

Set your observer location to see the next 7 days of passes ≥ 10°. The values pass through the URL so the page stays shareable.

No JS? Fill the form by hand. The geolocation button needs JavaScript.